Find STARLINK-37438

NORAD ID: 799500965 Int'l Des: 2026-132U Constellation: starlink operational

Current View

Loading 3D Globe...

About STARLINK-37438

STARLINK-37438 (NORAD 799500965) is a starlink constellation satellite launched Jun 8, 2026

About STARLINK-37438

Description loading...

Upcoming Passes

Passes for default location (London). Set your location on the main map for personalized predictions.

Altitude History

Loading altitude history...

Two-Line Element Set

1 99999C 2026132U 26163.60881943 .00759720 00000-0 872030-4 0 1635
2 99999 53.1637 346.9076 0008475 278.7384 220.5645 16.07817211 19
Epoch: Jun 12, 2026 • Age: 8 hours